GSAT-12

Last updated on Jan. 29, 2020, 4:37 a.m. UTC

1 37746U 11034A   20028.80309227 -.00000166  00000-0  00000+0 0  9992
2 37746   0.0177 270.6184 0007793 181.1835  47.8107  1.00271071 31577
UTC
Height (km)
Latitude
Longitude
Inclination
Orbital Period
UTC large
Height (km)
Speed (km/s)
/
Latitude / Longitude
Inclination (degrees)
Orbital Period (minutes)
Azimuth
Elevation
Range (km)
Doppler Factor
iOS Compass Heading
iOS Angle

Next 30 passes for location: Hong Kong

Rise time Rise Azimuth (degrees) Set time Set Azimuth (degrees) Duration Max altitude (degrees)

No matching passes for this satellites